Regional Weather Roundup
Issued by NWS

Home | Current Version | Previous Version | Text Only | Print | Product List | Glossary On
Versions: 1 2 3 4 5 6 7 8 9 10 11 12 13 14 15 16 17 18 19 20 21 22 23 24 25 26 27 28 29 30 31 32 33 34 35 36 37 38 39 40 41 42 43 44 45 46 47 48 49 50
000
ASUS43 KLOT 291108
RWRIL

ILLINOIS REGIONAL WEATHER ROUNDUP
NATIONAL WEATHER SERVICE CHICAGO/ROMEOVILLE IL
600 AM CDT SAT APR 29 2017

NOTE: "FAIR" INDICATES FEW OR NO CLOUDS BELOW 12,000 FEET WITH NO
SIGNIFICANT WEATHER AND/OR OBSTRUCTIONS TO VISIBILITY.

* THESE STATIONS ARE NOT UNDER NWS QUALITY CONTROL. THEY ALSO MAY NOT
  REPORT WEATHER SUCH AS PRECIPITATION OR FOG.

ILZ001-002-007-009-015-016-024-291200-
NORTHWEST ILLINOIS

CITY           SKY/WX    TMP DP  RH WIND       PRES   REMARKS
MOLINE         CLOUDY    47  42  83 E13       30.09R
STERLING*      CLOUDY    46  42  86 E18       30.12R
SAVANNA*       CLOUDY    46  40  78 NE10      30.12F
$$

ILZ003-004-008-010-011-017-018-291200-
NORTH CENTRAL ILLINOIS

CITY           SKY/WX    TMP DP  RH WIND       PRES   REMARKS
ROCKFORD       CLOUDY    46  33  60 NE16      30.17R
FREEPORT*      CLOUDY    44  40  85 NE13      30.15R
ROCHELLE*      CLOUDY    44  39  82 NE17      30.13R
DE KALB*       CLOUDY    44  38  80 NE18      30.14R
PERU*          CLOUDY    46  40  81 NE17      30.10S
$$

ILZ005-006-012>014-019>023-291200-
NORTHEAST ILLINOIS

CITY           SKY/WX    TMP DP  RH WIND       PRES   REMARKS
CHICAGO-OHARE  CLOUDY    46  36  68 NE18      30.13R
CHICAGO-MIDWAY CLOUDY    46  39  76 NE14G23   30.14R
AURORA         CLOUDY    46  39  76 NE14      30.13R
LANSING*       CLOUDY    46  42  86 N14       30.12R
JOLIET*        CLOUDY    47  39  73 NE13      30.12R
WAUKEGAN       CLOUDY    42  35  76 N13       30.15R
DUPAGE AIRPORT CLOUDY    45  38  76 NE17      30.12R
KANKAKEE*      CLOUDY    47  41  81 NE14      30.08R
WHEELING       CLOUDY    44  37  76 N13G22    30.15R
MORRIS*        CLOUDY    46  39  76 NE7       30.10R
ROMEOVILLE*    CLOUDY    45  40  83 NE14G21   30.12R
NORTHERLY ISL    N/A     44  39  82 N18         N/A
$$

LMZ740>746-291200-
SOUTHERN LAKE MICHIGAN

STATION/POSITION SKY/WX   TEMP    WIND        PRES    VSBY  WAVE
                          AIR SEA DIR/SP/G                  HT/PER
                          (F)     (DEG/KT/KT) (MB)    (MI)  (FT/S)
SOUTHERN BUOY              42 41   20/ 16/ 19 1019.7          2/ 4
HARRISON CRIB              44      10/ 20/ 22   N/A
BURNHAM HARBOR             44      10/ 16/ 20   N/A
CALUMET HARBOR             44     360/ 10/ 18 1019.4R
BURNS HARBOR               45      30/ 17/ 20 1019.0R
MICHIGAN CITY              44      10/ 18/ 20   N/A
MICHIGAN CITY 6N           44 46                N/A           4/ 5
ST. JOSEPH                 47 49   50/ 16/ 21 1019.8          4/ 4
$$

ILZ025>027-034>036-040-047-049-050-058-095>099-291200-
WEST-CENTRAL ILLINOIS

CITY           SKY/WX    TMP DP  RH WIND       PRES   REMARKS
QUINCY         LGT RAIN  51  50  96 NE15      29.95F FOG
GALESBURG*     CLOUDY    47  46  93 NE13G18   30.05R
MACOMB*        CLOUDY    49  48  95 NE16      30.03F FOG
JACKSONVILLE*  RAIN      55  54  97 NE14G20   29.93F
PITTSFIELD*    LGT RAIN  55  55  98 NE10G16   29.94F
$$

ILZ028>032-037-038-041>044-048-051>054-059>061-291200-
CENTRAL ILLINOIS

CITY           SKY/WX    TMP DP  RH WIND       PRES   REMARKS
PONTIAC        CLOUDY    47  46  93 NE13      30.06F
BLOOMINGTON    LGT RAIN  46  43  89 NE20G29   30.04S
DECATUR        RAIN      51  51 100 N21G26    29.93F FOG
PEORIA         CLOUDY    49  43  80 NE14      30.04S
LACON*         CLOUDY    47  42  83 NE12      30.07R
LINCOLN*       RAIN      49  47  92 N16G24    29.99S
SPRINGFIELD    LGT RAIN  56  54  93 NE17      29.94F FOG
TAYLORVILLE    LGT RAIN  55  55  99 N15       29.95R
$$

ILZ033-039-045-046-055>057-062-063-291200-
EAST-CENTRAL ILLINOIS

CITY           SKY/WX    TMP DP  RH WIND       PRES   REMARKS
CHAMPAIGN      LGT RAIN  50  48  93 NE15      30.01R FOG
RANTOUL*       LGT RAIN  49  47  93 NE14      30.03R
MATTOON        RAIN      55  55 100 NE21G32   29.87F FOG
PARIS*         HVY RAIN  55  55 100 NE7       30.00R
$$

ILZ079-100>102-291200-
SOUTHWEST ILLINOIS

CITY           SKY/WX    TMP DP  RH WIND       PRES   REMARKS
ALTON          HVY RAIN  57  56  96 W14G24    29.99R
BELLEVILLE     HVY RAIN  57  57 100 NW13      29.90F FOG
CAHOKIA*       RAIN      59  56  89 N8        29.93R FOG
SPARTA*        TSTM      61  59  94 NW6       29.91R
$$

ILZ064>066-069>071-074>076-080>082-084>086-088>090-092>094-291200-
SOUTH-CENTRAL ILLINOIS

CITY           SKY/WX    TMP DP  RH WIND       PRES   REMARKS
CARBONDALE     HVY RAIN  63  63 100 CALM      29.87R FOG
CAIRO*         CLOUDY    74  69  85 S14       29.83R
EFFINGHAM*     TSTM      57  57 100 NE9       29.88F
MARION         TSTM      64  64 100 E7        29.85F
MT. VERNON     TSTM      62  61  96 NE8       29.90R
CENTRALIA*     TSTM      61  61 100 SE6       29.93R
SALEM*         CLOUDY    62  60  94 SE8       29.90R
METROPOLIS*    CLOUDY    75  69  80 S7G17     29.85R
$$

ILZ067-068-072-073-078-083-087-091-291200-
SOUTHEAST ILLINOIS

CITY           SKY/WX    TMP DP  RH WIND       PRES   REMARKS
LAWRENCEVILLE  RAIN      60  60 100 E7        29.93R FOG
FLORA*         TSTM      60  60  98 E9        29.87F
FAIRFIELD*     TSTM      60  60 100 E5        29.89F
HARRISBURG*    TSTM      64  64  98 NE10G20   29.89F
ROBINSON*      RAIN      56  56 100 NE6       29.94R
CARMI*         TSTM      64  64 100 N7        29.94R
$$

ABBREVIATIONS USED IN REMARKS
   TC - TEMPERATURE IN CELSIUS
  WCI - WIND CHILL INDEX
   HX - HEAT INDEX
  VSB - VISIBILITY
$$





USA.gov is the U.S. government's official web portal to all federal, state and local government web resources and services.